Weather History for Jackson, MS

Change the Weather History Date:

Friday, July 27, 2012

  Actual Average Record
Temperature  
Mean Temperature 83 °F 82 °F  
Max Temperature 91 °F 92 °F 103 °F (1952)
Min Temperature 74 °F 72 °F 58 °F (1911)
Degree Days  
Heating Degree Days 0 0  
Month to date heating degree days 0 0  
Since 1 June heating degree days 0 0  
Since 1 July heating degree days 0 0  
Cooling Degree Days 18 17  
Month to date cooling degree days 483 452  
Year to date cooling degree days 1508 1232  
Since 1 June cooling degree days 931 874  
Growing Degree Days 33 (Base 50)    
Moisture  
Dew Point 74 °F    
Average Humidity 75    
Maximum Humidity 94    
Minimum Humidity 56    
Precipitation  
Precipitation 0.07 in 0.15 in 2.28 in (1950)
Month to date precipitation 7.80 4.20  
Year to date precipitation 43.76 32.43  
Sea Level Pressure  
Sea Level Pressure 30.01 in    
Wind  
Wind Speed 6 mph (WSW)    
Max Wind Speed 17 mph    
Max Gust Speed 28 mph    
Visibility 8 miles    
Events Rain , Thunderstorm    
T = Trace of Precipitation, MM = Missing Value Source: NWS Daily Summary

Daily Weather History Graph

Daily Weather History Graph

Search for Another Location

Airport:

Trip Planner

Search our weather history database for the weather conditions in past years. The results will help you decide how hot, cold, wet, or windy it might be!

Date:

Astronomy

Jul. 27, 2012 Rise Set
Actual Time 6:12 AM CDT 8:01 PM CDT
Civil Twilight 5:45 AM CDT 8:28 PM CDT
Nautical Twilight 5:12 AM CDT 9:00 PM CDT
Astronomical Twilight 4:37 AM CDT 9:35 PM CDT
Moon 2:57 PM CDT (7/27) 12:43 AM CDT (7/27)
Length of Visible Light 14h 43m
Length of Day
13h 49m
Waxing Gibbous, 65% of the Moon is Illuminated
Jul 27
Waxing Gibbous
Aug 1
Full
Aug 9
Last Quarter
Aug 17
New
Aug 24
First Quarter

Hourly Weather History & Observations

Time (CDT) Temp. Heat Index Dew Point Humidity Pressure Visibility Wind Dir Wind Speed Gust Speed Precip Events Conditions
12:54 AM 77.0 °F - 73.9 °F 90% 29.97 in 10.0 mi SSW 6.9 mph - N/A   Clear
1:54 AM 77.0 °F - 73.9 °F 90% 29.97 in 10.0 mi SSW 4.6 mph - N/A   Clear
2:54 AM 75.9 °F - 73.9 °F 94% 29.97 in 9.0 mi SW 3.5 mph - N/A   Clear
3:54 AM 77.0 °F - 73.9 °F 90% 29.96 in 9.0 mi South 5.8 mph - N/A   Clear
4:54 AM 77.0 °F - 73.9 °F 90% 29.97 in 8.0 mi South 6.9 mph - N/A   Clear
5:26 AM 77.0 °F - 73.4 °F 89% 30.00 in 8.0 mi SW 5.8 mph - N/A   Mostly Cloudy
5:52 AM 77.0 °F - 75.2 °F 94% 30.00 in 8.0 mi SW 6.9 mph - N/A   Scattered Clouds
5:54 AM 77.0 °F - 75.0 °F 94% 29.99 in 8.0 mi SW 6.9 mph - N/A   Scattered Clouds
6:54 AM 78.1 °F - 75.0 °F 90% 30.00 in 6.0 mi SW 6.9 mph - N/A   Mostly Cloudy
7:54 AM 80.1 °F 85.1 °F 75.0 °F 85% 30.01 in 7.0 mi SW 6.9 mph - N/A   Partly Cloudy
8:54 AM 82.9 °F 90.2 °F 75.0 °F 77% 30.02 in 7.0 mi WSW 8.1 mph - N/A   Scattered Clouds
9:37 AM 84.2 °F 92.3 °F 75.2 °F 74% 30.04 in 7.0 mi WNW 10.4 mph 16.1 mph N/A   Mostly Cloudy
9:54 AM 84.0 °F 91.9 °F 75.0 °F 74% 30.03 in 7.0 mi West 10.4 mph 19.6 mph N/A   Mostly Cloudy
10:54 AM 84.9 °F 93.3 °F 75.0 °F 72% 30.04 in 6.0 mi WNW 8.1 mph - N/A   Haze
11:11 AM 87.8 °F 97.6 °F 75.2 °F 66% 30.04 in 7.0 mi West 9.2 mph - N/A   Scattered Clouds
11:54 AM 88.0 °F 97.5 °F 75.0 °F 65% 30.02 in 7.0 mi West 5.8 mph - N/A   Mostly Cloudy
12:11 PM 87.8 °F 97.6 °F 75.2 °F 66% 30.03 in 7.0 mi NW 8.1 mph - N/A   Mostly Cloudy
12:54 PM 88.0 °F 100.2 °F 77.0 °F 70% 30.01 in 7.0 mi NNW 10.4 mph - 0.00 in   Mostly Cloudy
1:10 PM 87.8 °F 97.6 °F 75.2 °F 66% 30.02 in 8.0 mi WNW 9.2 mph - N/A Thunderstorm Thunderstorm
1:28 PM 87.8 °F 95.6 °F 73.4 °F 62% 30.01 in 10.0 mi NNW 9.2 mph - 0.00 in   Mostly Cloudy
1:54 PM 90.0 °F 96.9 °F 72.0 °F 55% 30.00 in 10.0 mi NNW 6.9 mph - 0.00 in   Mostly Cloudy
2:54 PM 90.0 °F 100.2 °F 75.0 °F 61% 29.97 in 8.0 mi NW 11.5 mph - N/A   Scattered Clouds
3:10 PM 84.2 °F 88.4 °F 69.8 °F 62% 30.01 in 10.0 mi WNW 10.4 mph 24.2 mph N/A Thunderstorm Thunderstorm
3:43 PM 78.8 °F - 73.4 °F 83% 30.03 in 10.0 mi WSW 9.2 mph - N/A   Overcast
3:54 PM 78.1 °F - 73.0 °F 84% 30.01 in 10.0 mi SW 10.4 mph - 0.01 in   Overcast
4:54 PM 78.1 °F - 75.0 °F 90% 30.01 in 6.0 mi Calm Calm - 0.01 in Rain Light Rain
5:23 PM 77.0 °F - 68.0 °F 74% 30.02 in 10.0 mi West 5.8 mph - 0.00 in Rain , Thunderstorm Light Thunderstorms and Rain
5:54 PM 75.0 °F - 69.1 °F 82% 30.00 in 6.0 mi SW 6.9 mph - 0.02 in Rain , Thunderstorm Thunderstorms and Rain
6:13 PM 75.2 °F - 69.8 °F 83% 30.02 in 5.0 mi WNW 3.5 mph - 0.02 in Rain Light Rain
6:54 PM 75.0 °F - 72.0 °F 90% 30.00 in 9.0 mi South 4.6 mph - 0.03 in Rain Light Rain
7:54 PM 75.0 °F - 72.0 °F 90% 30.01 in 10.0 mi Calm Calm - 0.00 in   Scattered Clouds
8:54 PM 75.9 °F - 73.0 °F 91% 30.01 in 10.0 mi Calm Calm - N/A   Mostly Cloudy
9:54 PM 75.9 °F - 73.9 °F 94% 30.03 in 10.0 mi Calm Calm - N/A   Overcast
10:54 PM 75.9 °F - 73.0 °F 91% 30.03 in 10.0 mi Calm Calm - N/A   Overcast
11:54 PM 75.9 °F - 73.0 °F 91% 30.03 in 10.0 mi SE 4.6 mph - N/A   Overcast